Location: Unspecified
(0.0000°N, 0.0000°E)
Time: 06:27:00
(UTC+00:00)

Tiangong - Pass Details

Date: 27 November 2022
Orbit: 385 x 393 km, 41.5° (Epoch: 29 November)

Event Time Altitude Azimuth Distance (km) Brightness Sun altitude
Exits shadow 05:05:29 - 253° (WSW) 1,507 0.4 -9.8°
Reaches altitude 10° 05:06:00 10° 245° (WSW) 1,417 0.3 -9.7°
Maximum altitude 05:07:12 12° 223° (SW) 1,324 0.4 -9.4°
Drops below altitude 10° 05:08:24 10° 201° (SSW) 1,418 0.7 -9.1°
Sets 05:11:36 0° 166° (SSE) 2,273 2.3 -8.4°
